| time (UTC) | temp C | wind direction | speed KPH | gust KPH | rain 1hr cm | rain 24hr cm | rain mn cm | humidity % | barometer mb |
| 20260505183939 | 14 | 184 | 0.0 | 0.0 | 0.00 | 0.00 | 0.00 | 81 | 1018.7 |
| 20260505183437 | 14 | 179 | 0.0 | 0.0 | 0.00 | 0.00 | 0.00 | 81 | 1018.6 |
| 20260505182933 | 14 | 218 | 3.2 | 3.2 | 0.00 | 0.00 | 0.00 | 81 | 1018.5 |
| 20260505182430 | 15 | 177 | 1.6 | 1.6 | 0.00 | 0.00 | 0.00 | 80 | 1018.5 |
| 20260505181926 | 14 | 201 | 0.0 | 0.0 | 0.00 | 0.00 | 0.00 | 81 | 1018.5 |
| 20260505181424 | 14 | 205 | 0.0 | 1.6 | 0.00 | 0.00 | 0.00 | 80 | 1018.4 |
| 20260505180921 | 14 | 194 | 0.0 | 0.0 | 0.00 | 0.00 | 0.00 | 81 | 1018.5 |
| 20260505180417 | 14 | 198 | 0.0 | 0.0 | 0.00 | 0.00 | 0.00 | 81 | 1018.5 |
| 20260505175914 | 14 | 200 | 0.0 | 0.0 | 0.00 | 0.00 | 0.00 | 82 | 1018.5 |
| 20260505175410 | 14 | 199 | 0.0 | 0.0 | 0.00 | 0.00 | 0.00 | 82 | 1018.5 |
| 20260505174906 | 14 | 205 | 0.0 | 0.0 | 0.00 | 0.00 | 0.00 | 82 | 1018.4 |
| 20260505174404 | 14 | 197 | 0.0 | 0.0 | 0.00 | 0.00 | 0.00 | 82 | 1018.5 |
| 20260505173900 | 13 | 196 | 0.0 | 0.0 | 0.00 | 0.00 | 0.00 | 82 | 1018.3 |
| 20260505173356 | 13 | 194 | 0.0 | 3.2 | 0.00 | 0.00 | 0.00 | 82 | 1018.5 |
| 20260505172854 | 13 | 194 | 0.0 | 0.0 | 0.00 | 0.00 | 0.00 | 82 | 1018.3 |
| 20260505172352 | 13 | 194 | 0.0 | 0.0 | 0.00 | 0.00 | 0.00 | 82 | 1018.4 |
| 20260505171851 | 13 | 193 | 0.0 | 0.0 | 0.00 | 0.00 | 0.00 | 82 | 1018.3 |
| 20260505171348 | 13 | 193 | 0.0 | 0.0 | 0.00 | 0.00 | 0.00 | 82 | 1018.3 |
| 20260505170844 | 13 | 183 | 0.0 | 0.0 | 0.00 | 0.00 | 0.00 | 83 | 1018.4 |
| 20260505170342 | 13 | 190 | 0.0 | 0.0 | 0.00 | 0.00 | 0.00 | 84 | 1018.3 |
| 20260505165837 | 13 | 193 | 0.0 | 0.0 | 0.00 | 0.00 | 0.00 | 83 | 1018.2 |
| 20260505165333 | 13 | 194 | 0.0 | 0.0 | 0.00 | 0.00 | 0.00 | 84 | 1018.0 |
| 20260505164829 | 13 | 207 | 0.0 | 1.6 | 0.00 | 0.00 | 0.00 | 83 | 1018.2 |
| 20260505164325 | 13 | 196 | 0.0 | 0.0 | 0.00 | 0.00 | 0.00 | 84 | 1018.0 |
| 20260505163824 | 13 | 198 | 0.0 | 3.2 | 0.00 | 0.00 | 0.00 | 83 | 1018.1 |
| 20260505163322 | 13 | 195 | 0.0 | 0.0 | 0.00 | 0.00 | 0.00 | 84 | 1018.0 |
| 20260505162820 | 13 | 124 | 0.0 | 0.0 | 0.00 | 0.00 | 0.00 | 84 | 1018.1 |
| 20260505162316 | 13 | 194 | 0.0 | 1.6 | 0.00 | 0.00 | 0.00 | 84 | 1017.9 |
| 20260505161813 | 13 | 185 | 0.0 | 0.0 | 0.00 | 0.00 | 0.00 | 84 | 1018.2 |
| 20260505161310 | 13 | 196 | 0.0 | 1.6 | 0.00 | 0.00 | 0.00 | 85 | 1017.9 |
| 20260505160808 | 13 | 193 | 0.0 | 0.0 | 0.00 | 0.00 | 0.00 | 85 | 1018.0 |
| 20260505160306 | 13 | 198 | 0.0 | 1.6 | 0.00 | 0.00 | 0.00 | 86 | 1017.9 |
| 20260505153244 | 12 | 199 | 0.0 | 1.6 | 0.00 | 0.00 | 0.00 | 87 | 1018.0 |
| 20260505152741 | 12 | 178 | 0.0 | 1.6 | 0.00 | 0.00 | 0.00 | 87 | 1018.0 |
| 20260505152238 | 12 | 192 | 0.0 | 0.0 | 0.00 | 0.00 | 0.00 | 87 | 1017.9 |
| 20260505151732 | 12 | 211 | 0.0 | 1.6 | 0.00 | 0.00 | 0.00 | 87 | 1017.9 |
| 20260505151230 | 12 | 194 | 0.0 | 0.0 | 0.00 | 0.00 | 0.00 | 87 | 1017.9 |
| 20260505150726 | 12 | 190 | 0.0 | 0.0 | 0.00 | 0.00 | 0.00 | 88 | 1018.1 |
| 20260505150223 | 12 | 181 | 0.0 | 0.0 | 0.00 | 0.00 | 0.00 | 87 | 1017.8 |
| 20260505140651 | 12 | 197 | 0.0 | 0.0 | 0.00 | 0.00 | 0.00 | 88 | 1017.2 |
| 20260505140148 | 12 | 207 | 0.0 | 0.0 | 0.00 | 0.00 | 0.00 | 88 | 1017.5 |
| 20260505130112 | 12 | 190 | 0.0 | 1.6 | 0.00 | 0.00 | 0.00 | 87 | 1016.8 |
| 20260505124601 | 12 | 190 | 0.0 | 0.0 | 0.00 | 0.00 | 0.00 | 87 | 1016.9 |
| 20260505124058 | 12 | 198 | 0.0 | 0.0 | 0.00 | 0.00 | 0.00 | 87 | 1016.7 |
| 20260505123554 | 12 | 188 | 0.0 | 0.0 | 0.00 | 0.00 | 0.00 | 86 | 1016.8 |
| 20260505123050 | 12 | 196 | 0.0 | 0.0 | 0.00 | 0.00 | 0.00 | 86 | 1016.8 |
| 20260505122547 | 12 | 198 | 0.0 | 0.0 | 0.00 | 0.00 | 0.00 | 86 | 1017.0 |
| 20260505122044 | 12 | 205 | 0.0 | 0.0 | 0.00 | 0.00 | 0.00 | 86 | 1016.9 |
| 20260505121541 | 12 | 197 | 0.0 | 0.0 | 0.00 | 0.00 | 0.00 | 86 | 1017.0 |
| 20260505121038 | 12 | 192 | 0.0 | 0.0 | 0.00 | 0.00 | 0.00 | 86 | 1016.9 |
| 20260505120534 | 12 | 205 | 0.0 | 1.6 | 0.00 | 0.00 | 0.00 | 86 | 1016.8 |
| 20260505120029 | 12 | 188 | 0.0 | 0.0 | 0.00 | 0.00 | 0.00 | 86 | 1016.8 |
| 20260505115524 | 12 | 188 | 0.0 | 0.0 | 0.00 | 0.00 | 0.00 | 86 | 1016.7 |
| 20260505115022 | 12 | 200 | 0.0 | 0.0 | 0.00 | 0.00 | 0.00 | 86 | 1016.7 |
| 20260505114519 | 12 | 192 | 0.0 | 0.0 | 0.00 | 0.00 | 0.00 | 86 | 1016.7 |
| 20260505114015 | 12 | 196 | 0.0 | 0.0 | 0.00 | 0.00 | 0.00 | 86 | 1016.7 |
| 20260505113512 | 12 | 198 | 0.0 | 0.0 | 0.00 | 0.00 | 0.00 | 86 | 1016.7 |
| 20260505113009 | 12 | 190 | 0.0 | 0.0 | 0.00 | 0.00 | 0.00 | 85 | 1016.5 |
| 20260505112504 | 12 | 189 | 0.0 | 0.0 | 0.00 | 0.00 | 0.00 | 86 | 1016.5 |
| 20260505112002 | 12 | 192 | 0.0 | 3.2 | 0.00 | 0.00 | 0.00 | 86 | 1016.8 |
| 20260505111456 | 12 | 203 | 0.0 | 0.0 | 0.00 | 0.00 | 0.00 | 85 | 1016.7 |
| 20260505110953 | 12 | 210 | 0.0 | 0.0 | 0.00 | 0.00 | 0.00 | 85 | 1016.5 |
| 20260505110449 | 12 | 198 | 0.0 | 0.0 | 0.00 | 0.00 | 0.00 | 85 | 1016.6 |
| 20260505101920 | 12 | 188 | 0.0 | 0.0 | 0.00 | 0.00 | 0.00 | 85 | 1016.3 |
| 20260505101415 | 12 | 200 | 0.0 | 0.0 | 0.00 | 0.00 | 0.00 | 86 | 1016.3 |
| 20260505100911 | 12 | 193 | 0.0 | 0.0 | 0.00 | 0.00 | 0.00 | 86 | 1016.1 |
| 20260505100408 | 12 | 198 | 0.0 | 3.2 | 0.00 | 0.00 | 0.00 | 85 | 1016.3 |
| 20260505095903 | 12 | 195 | 0.0 | 3.2 | 0.00 | 0.00 | 0.00 | 85 | 1016.1 |
| 20260505095401 | 12 | 197 | 0.0 | 0.0 | 0.00 | 0.00 | 0.00 | 85 | 1016.1 |
| 20260505094857 | 12 | 186 | 0.0 | 1.6 | 0.00 | 0.00 | 0.00 | 85 | 1016.2 |
| 20260505094354 | 12 | 184 | 0.0 | 0.0 | 0.00 | 0.00 | 0.00 | 85 | 1016.2 |
| 20260505093849 | 12 | 194 | 0.0 | 0.0 | 0.00 | 0.00 | 0.00 | 85 | 1016.4 |
| 20260505093347 | 12 | 186 | 0.0 | 0.0 | 0.00 | 0.00 | 0.00 | 85 | 1015.9 |
| 20260505092844 | 12 | 188 | 0.0 | 3.2 | 0.00 | 0.00 | 0.00 | 85 | 1016.1 |
| 20260505092342 | 12 | 193 | 0.0 | 0.0 | 0.00 | 0.00 | 0.00 | 85 | 1016.1 |
| 20260505091839 | 12 | 196 | 0.0 | 0.0 | 0.00 | 0.00 | 0.00 | 85 | 1016.2 |
| 20260505091337 | 12 | 201 | 0.0 | 0.0 | 0.00 | 0.00 | 0.00 | 85 | 1015.8 |
| 20260505090835 | 12 | 197 | 0.0 | 0.0 | 0.00 | 0.00 | 0.00 | 84 | 1015.7 |
| 20260505090333 | 12 | 202 | 0.0 | 0.0 | 0.00 | 0.00 | 0.00 | 83 | 1015.7 |
| 20260505085830 | 13 | 195 | 0.0 | 0.0 | 0.00 | 0.00 | 0.00 | 83 | 1015.8 |
| 20260505085328 | 13 | 194 | 0.0 | 1.6 | 0.00 | 0.00 | 0.00 | 83 | 1015.5 |
| 20260505084826 | 13 | 194 | 0.0 | 3.2 | 0.00 | 0.00 | 0.00 | 83 | 1015.5 |
| 20260505084324 | 13 | 196 | 0.0 | 1.6 | 0.00 | 0.00 | 0.00 | 82 | 1015.6 |
| 20260505083820 | 13 | 197 | 0.0 | 3.2 | 0.00 | 0.00 | 0.00 | 82 | 1015.5 |
| 20260505083318 | 13 | 203 | 0.0 | 0.0 | 0.00 | 0.00 | 0.00 | 81 | 1015.8 |
| 20260505082814 | 13 | 198 | 0.0 | 0.0 | 0.00 | 0.00 | 0.00 | 81 | 1015.6 |
| 20260505082311 | 13 | 212 | 1.6 | 3.2 | 0.00 | 0.00 | 0.00 | 81 | 1015.6 |
| 20260505081807 | 13 | 191 | 0.0 | 0.0 | 0.00 | 0.00 | 0.00 | 81 | 1015.5 |
| 20260505081304 | 13 | 188 | 0.0 | 3.2 | 0.00 | 0.00 | 0.00 | 80 | 1015.5 |
| 20260505080801 | 13 | 194 | 0.0 | 1.6 | 0.00 | 0.00 | 0.00 | 80 | 1015.5 |
| 20260505080256 | 13 | 189 | 0.0 | 0.0 | 0.00 | 0.00 | 0.00 | 80 | 1015.6 |
| 20260505075752 | 13 | 195 | 0.0 | 3.2 | 0.00 | 0.00 | 0.00 | 80 | 1015.3 |
| 20260505075250 | 13 | 192 | 0.0 | 0.0 | 0.00 | 0.00 | 0.00 | 80 | 1015.4 |
| 20260505074747 | 13 | 197 | 0.0 | 1.6 | 0.00 | 0.00 | 0.00 | 80 | 1015.3 |
| 20260505074244 | 13 | 219 | 0.0 | 3.2 | 0.00 | 0.00 | 0.00 | 80 | 1015.3 |
| 20260505073742 | 13 | 171 | 1.6 | 1.6 | 0.00 | 0.00 | 0.00 | 80 | 1015.3 |
| 20260505073239 | 13 | 191 | 0.0 | 1.6 | 0.00 | 0.00 | 0.00 | 80 | 1014.9 |
| 20260505072736 | 13 | 187 | 0.0 | 3.2 | 0.00 | 0.00 | 0.00 | 80 | 1015.0 |
| 20260505072232 | 13 | 190 | 0.0 | 1.6 | 0.00 | 0.00 | 0.00 | 80 | 1014.9 |
| 20260505071727 | 14 | 259 | 0.0 | 3.2 | 0.00 | 0.00 | 0.00 | 79 | 1014.8 |
| 20260505071225 | 14 | 190 | 0.0 | 0.0 | 0.00 | 0.00 | 0.00 | 79 | 1014.9 |
| 20260505070722 | 14 | 197 | 0.0 | 3.2 | 0.00 | 0.00 | 0.00 | 79 | 1014.5 |
| 20260505070218 | 14 | 196 | 0.0 | 1.6 | 0.00 | 0.00 | 0.00 | 79 | 1014.6 |
| 20260505065714 | 15 | 205 | 0.0 | 1.6 | 0.00 | 0.00 | 0.00 | 79 | 1014.5 |
| 20260505065211 | 15 | 199 | 0.0 | 3.2 | 0.00 | 0.00 | 0.00 | 79 | 1014.6 |
| 20260505064708 | 15 | 198 | 0.0 | 0.0 | 0.00 | 0.00 | 0.00 | 78 | 1014.3 |
| 20260505064206 | 15 | 197 | 0.0 | 0.0 | 0.00 | 0.00 | 0.00 | 78 | 1014.2 |
| 20260505063704 | 15 | 194 | 0.0 | 3.2 | 0.00 | 0.00 | 0.00 | 78 | 1014.2 |
| 20260505063159 | 15 | 191 | 0.0 | 0.0 | 0.00 | 0.00 | 0.00 | 78 | 1014.2 |
| 20260505062655 | 15 | 191 | 1.6 | 3.2 | 0.00 | 0.00 | 0.00 | 77 | 1014.2 |
| 20260505062154 | 15 | 178 | 0.0 | 0.0 | 0.00 | 0.00 | 0.00 | 77 | 1014.1 |
| 20260505061650 | 15 | 192 | 0.0 | 1.6 | 0.00 | 0.00 | 0.00 | 76 | 1014.0 |
| 20260505061148 | 16 | 182 | 0.0 | 1.6 | 0.00 | 0.00 | 0.00 | 75 | 1014.2 |
| 20260505060645 | 16 | 192 | 0.0 | 0.0 | 0.00 | 0.00 | 0.00 | 75 | 1014.2 |
| 20260505060142 | 16 | 203 | 0.0 | 0.0 | 0.00 | 0.00 | 0.00 | 75 | 1013.9 |
| 20260505055637 | 16 | 202 | 0.0 | 0.0 | 0.00 | 0.00 | 0.00 | 74 | 1014.2 |
| 20260505055134 | 16 | 200 | 0.0 | 0.0 | 0.00 | 0.00 | 0.00 | 73 | 1013.7 |
| 20260505054632 | 17 | 182 | 0.0 | 3.2 | 0.00 | 0.00 | 0.00 | 73 | 1014.0 |
| 20260505054130 | 17 | 191 | 0.0 | 0.0 | 0.00 | 0.00 | 0.00 | 74 | 1013.8 |
| 20260505053627 | 17 | 196 | 0.0 | 0.0 | 0.00 | 0.00 | 0.00 | 73 | 1013.8 |
| 20260505053123 | 17 | 204 | 0.0 | 3.2 | 0.00 | 0.00 | 0.00 | 73 | 1013.6 |
| 20260505052620 | 18 | 194 | 0.0 | 0.0 | 0.00 | 0.00 | 0.00 | 73 | 1013.9 |
| 20260505052118 | 18 | 207 | 0.0 | 3.2 | 0.00 | 0.00 | 0.00 | 72 | 1013.8 |
| 20260505051614 | 18 | 203 | 0.0 | 1.6 | 0.00 | 0.00 | 0.00 | 72 | 1013.7 |
| 20260505051113 | 18 | 188 | 0.0 | 0.0 | 0.00 | 0.00 | 0.00 | 71 | 1013.8 |
| 20260505050610 | 18 | 205 | 0.0 | 0.0 | 0.00 | 0.00 | 0.00 | 70 | 1013.6 |
| 20260505050108 | 18 | 198 | 0.0 | 1.6 | 0.00 | 0.00 | 0.00 | 71 | 1013.5 |
| 20260505041538 | 19 | 199 | 0.0 | 1.6 | 0.00 | 0.00 | 0.00 | 73 | 1012.9 |
| 20260505041035 | 19 | 209 | 0.0 | 0.0 | 0.00 | 0.00 | 0.00 | 74 | 1012.8 |
| 20260505040532 | 19 | 201 | 0.0 | 0.0 | 0.00 | 0.00 | 0.00 | 74 | 1012.7 |
| 20260505040030 | 19 | 200 | 0.0 | 0.0 | 0.00 | 0.00 | 0.00 | 74 | 1012.5 |
| 20260505035525 | 19 | 201 | 0.0 | 0.0 | 0.00 | 0.00 | 0.00 | 74 | 1012.3 |
| 20260505035022 | 19 | 201 | 0.0 | 0.0 | 0.00 | 0.00 | 0.00 | 74 | 1012.7 |
| 20260505034519 | 19 | 195 | 0.0 | 0.0 | 0.00 | 0.00 | 0.00 | 73 | 1012.5 |
| 20260505034016 | 19 | 199 | 0.0 | 0.0 | 0.00 | 0.00 | 0.00 | 73 | 1012.3 |
| 20260505033513 | 19 | 194 | 0.0 | 0.0 | 0.00 | 0.00 | 0.00 | 73 | 1012.2 |
| 20260505033011 | 20 | 212 | 0.0 | 0.0 | 0.00 | 0.00 | 0.00 | 72 | 1012.2 |
| 20260505032508 | 20 | 199 | 0.0 | 0.0 | 0.00 | 0.00 | 0.00 | 72 | 1012.1 |
| 20260505032005 | 20 | 195 | 0.0 | 0.0 | 0.00 | 0.00 | 0.00 | 71 | 1012.0 |
| 20260505031502 | 20 | 196 | 0.0 | 0.0 | 0.00 | 0.00 | 0.00 | 70 | 1012.1 |
| 20260505030958 | 20 | 266 | 0.0 | 1.6 | 0.00 | 0.00 | 0.00 | 70 | 1012.1 |
| 20260505030455 | 20 | 200 | 0.0 | 0.0 | 0.00 | 0.00 | 0.00 | 69 | 1011.8 |
| 20260505025950 | 20 | 199 | 0.0 | 1.6 | 0.00 | 0.00 | 0.00 | 69 | 1012.1 |
| 20260505025447 | 20 | 181 | 0.0 | 0.0 | 0.00 | 0.00 | 0.00 | 69 | 1012.0 |
| 20260505024946 | 20 | 195 | 0.0 | 1.6 | 0.00 | 0.00 | 0.00 | 68 | 1011.9 |
| 20260505024443 | 20 | 196 | 0.0 | 0.0 | 0.00 | 0.00 | 0.00 | 68 | 1011.8 |
| 20260505023940 | 21 | 200 | 0.0 | 3.2 | 0.00 | 0.00 | 0.00 | 67 | 1011.8 |
| 20260505023437 | 21 | 192 | 0.0 | 1.6 | 0.00 | 0.00 | 0.00 | 67 | 1011.8 |
| 20260505022934 | 21 | 194 | 0.0 | 4.8 | 0.00 | 0.00 | 0.00 | 66 | 1011.8 |
| 20260505022432 | 21 | 194 | 1.6 | 4.8 | 0.00 | 0.00 | 0.00 | 65 | 1011.7 |
| 20260505021929 | 21 | 199 | 0.0 | 1.6 | 0.00 | 0.00 | 0.00 | 65 | 1011.7 |
| 20260505021425 | 21 | 221 | 0.0 | 1.6 | 0.00 | 0.00 | 0.00 | 64 | 1011.8 |
| 20260505020921 | 21 | 196 | 0.0 | 0.0 | 0.00 | 0.00 | 0.00 | 64 | 1011.8 |
| 20260505020416 | 21 | 252 | 1.6 | 4.8 | 0.00 | 0.00 | 0.00 | 63 | 1011.7 |
| 20260505015914 | 22 | 197 | 0.0 | 3.2 | 0.00 | 0.00 | 0.00 | 63 | 1011.7 |
| 20260505015411 | 22 | 194 | 1.6 | 3.2 | 0.00 | 0.00 | 0.00 | 62 | 1011.9 |
| 20260505014908 | 22 | 197 | 0.0 | 1.6 | 0.00 | 0.00 | 0.00 | 62 | 1011.8 |
| 20260505014405 | 22 | 196 | 0.0 | 1.6 | 0.00 | 0.00 | 0.00 | 62 | 1011.7 |
| 20260505013902 | 22 | 191 | 0.0 | 1.6 | 0.00 | 0.00 | 0.00 | 61 | 1011.8 |
| 20260505013358 | 22 | 199 | 0.0 | 1.6 | 0.00 | 0.00 | 0.00 | 60 | 1011.8 |
| 20260505012857 | 23 | 201 | 3.2 | 3.2 | 0.00 | 0.00 | 0.00 | 58 | 1011.7 |
| 20260505012355 | 23 | 192 | 0.0 | 3.2 | 0.00 | 0.00 | 0.00 | 59 | 1012.0 |
| 20260505011850 | 23 | 207 | 1.6 | 1.6 | 0.00 | 0.00 | 0.00 | 58 | 1011.8 |
| 20260505011347 | 23 | 115 | 3.2 | 3.2 | 0.00 | 0.00 | 0.00 | 59 | 1012.1 |
| 20260505010843 | 23 | 189 | 0.0 | 1.6 | 0.00 | 0.00 | 0.00 | 58 | 1011.9 |
| 20260505010339 | 23 | 192 | 0.0 | 3.2 | 0.00 | 0.00 | 0.00 | 57 | 1011.9 |
| 20260505005836 | 24 | 220 | 0.0 | 1.6 | 0.00 | 0.00 | 0.00 | 55 | 1011.9 |
| 20260505005333 | 23 | 208 | 0.0 | 0.0 | 0.00 | 0.00 | 0.00 | 56 | 1011.8 |
| 20260505004830 | 23 | 202 | 0.0 | 1.6 | 0.00 | 0.00 | 0.00 | 56 | 1012.0 |
| 20260505004326 | 23 | 165 | 0.0 | 4.8 | 0.00 | 0.00 | 0.00 | 56 | 1012.0 |
| 20260505003824 | 23 | 215 | 0.0 | 3.2 | 0.00 | 0.00 | 0.00 | 55 | 1012.0 |
| 20260505003321 | 23 | 216 | 3.2 | 4.8 | 0.00 | 0.00 | 0.00 | 55 | 1012.0 |
| 20260505002817 | 24 | 201 | 0.0 | 3.2 | 0.00 | 0.00 | 0.00 | 55 | 1012.1 |
| 20260505002314 | 24 | 202 | 0.0 | 4.8 | 0.00 | 0.00 | 0.00 | 55 | 1012.2 |
| 20260505001812 | 24 | 200 | 0.0 | 1.6 | 0.00 | 0.00 | 0.00 | 55 | 1012.1 |
| 20260505001309 | 24 | 285 | 0.0 | 1.6 | 0.00 | 0.00 | 0.00 | 54 | 1012.2 |
| 20260505000806 | 24 | 199 | 1.6 | 3.2 | 0.00 | 0.00 | 0.00 | 56 | 1012.2 |
| 20260505000304 | 24 | 234 | 1.6 | 3.2 | 0.00 | 0.00 | 0.00 | 53 | 1012.3 |
| 20260504235800 | 23 | 241 | 3.2 | 4.8 | 0.00 | 0.00 | 0.00 | 54 | 1012.2 |
| 20260504235256 | 23 | 191 | 0.0 | 4.8 | 0.00 | 0.00 | 0.00 | 54 | 1012.1 |
| 20260504234754 | 24 | 194 | 0.0 | 0.0 | 0.00 | 0.00 | 0.00 | 54 | 1012.2 |
| 20260504234252 | 23 | 152 | 1.6 | 4.8 | 0.00 | 0.00 | 0.00 | 55 | 1012.2 |
| 20260504233748 | 23 | 193 | 0.0 | 1.6 | 0.00 | 0.00 | 0.00 | 54 | 1012.3 |
| 20260504233243 | 23 | 274 | 1.6 | 4.8 | 0.00 | 0.00 | 0.00 | 53 | 1012.3 |
| 20260504232740 | 23 | 202 | 1.6 | 1.6 | 0.00 | 0.00 | 0.00 | 54 | 1012.3 |
| 20260504232237 | 23 | 217 | 3.2 | 6.4 | 0.00 | 0.00 | 0.00 | 53 | 1012.3 |
| 20260504231735 | 23 | 199 | 0.0 | 1.6 | 0.00 | 0.00 | 0.00 | 55 | 1012.5 |
| 20260504231231 | 22 | 182 | 0.0 | 4.8 | 0.00 | 0.00 | 0.00 | 55 | 1012.3 |
| 20260504230727 | 22 | 200 | 0.0 | 3.2 | 0.00 | 0.00 | 0.00 | 56 | 1012.5 |
| 20260504230226 | 23 | 192 | 0.0 | 3.2 | 0.00 | 0.00 | 0.00 | 54 | 1012.6 |
| 20260504225724 | 23 | 268 | 1.6 | 4.8 | 0.00 | 0.00 | 0.00 | 53 | 1012.7 |
| 20260504225220 | 23 | 200 | 0.0 | 6.4 | 0.00 | 0.00 | 0.00 | 54 | 1012.8 |
| 20260504224717 | 24 | 271 | 3.2 | 4.8 | 0.00 | 0.00 | 0.00 | 52 | 1012.7 |
| 20260504224214 | 23 | 218 | 0.0 | 3.2 | 0.00 | 0.00 | 0.00 | 55 | 1012.7 |
| 20260504223710 | 23 | 210 | 0.0 | 1.6 | 0.00 | 0.00 | 0.00 | 55 | 1012.7 |
| 20260504223206 | 23 | 244 | 1.6 | 4.8 | 0.00 | 0.00 | 0.00 | 53 | 1012.9 |
| 20260504222703 | 22 | 215 | 1.6 | 1.6 | 0.00 | 0.00 | 0.00 | 56 | 1013.0 |
| 20260504222200 | 22 | 200 | 0.0 | 1.6 | 0.00 | 0.00 | 0.00 | 58 | 1013.0 |
| 20260504221657 | 22 | 206 | 0.0 | 6.4 | 0.00 | 0.00 | 0.00 | 59 | 1013.1 |
| 20260504221155 | 22 | 207 | 0.0 | 4.8 | 0.00 | 0.00 | 0.00 | 59 | 1013.2 |
| 20260504220651 | 21 | 198 | 0.0 | 3.2 | 0.00 | 0.00 | 0.00 | 61 | 1013.2 |
| 20260504220149 | 21 | 178 | 1.6 | 3.2 | 0.00 | 0.00 | 0.00 | 62 | 1013.2 |
| 20260504215645 | 21 | 134 | 3.2 | 3.2 | 0.00 | 0.00 | 0.00 | 61 | 1013.5 |
| 20260504215142 | 21 | 206 | 0.0 | 4.8 | 0.00 | 0.00 | 0.00 | 61 | 1013.3 |
| 20260504214638 | 20 | 211 | 1.6 | 4.8 | 0.00 | 0.00 | 0.00 | 63 | 1013.5 |
| 20260504214134 | 20 | 193 | 1.6 | 3.2 | 0.00 | 0.00 | 0.00 | 62 | 1013.3 |
| 20260504213631 | 21 | 176 | 0.0 | 4.8 | 0.00 | 0.00 | 0.00 | 61 | 1013.6 |
| 20260504213128 | 21 | 201 | 0.0 | 0.0 | 0.00 | 0.00 | 0.00 | 61 | 1013.6 |
| 20260504212624 | 21 | 212 | 3.2 | 4.8 | 0.00 | 0.00 | 0.00 | 60 | 1013.7 |
| 20260504212121 | 21 | 172 | 0.0 | 3.2 | 0.00 | 0.00 | 0.00 | 60 | 1013.8 |
| 20260504211619 | 21 | 196 | 0.0 | 1.6 | 0.00 | 0.00 | 0.00 | 61 | 1013.9 |
| 20260504211115 | 21 | 203 | 3.2 | 3.2 | 0.00 | 0.00 | 0.00 | 60 | 1014.0 |
| 20260504210613 | 21 | 230 | 1.6 | 4.8 | 0.00 | 0.00 | 0.00 | 62 | 1014.1 |
| 20260504210109 | 21 | 249 | 1.6 | 3.2 | 0.00 | 0.00 | 0.00 | 61 | 1014.2 |
| 20260504205607 | 20 | 214 | 0.0 | 1.6 | 0.00 | 0.00 | 0.00 | 63 | 1014.1 |
| 20260504205104 | 20 | 223 | 1.6 | 3.2 | 0.00 | 0.00 | 0.00 | 63 | 1014.4 |
| 20260504204602 | 20 | 193 | 0.0 | 1.6 | 0.00 | 0.00 | 0.00 | 65 | 1014.5 |
| 20260504204100 | 20 | 136 | 1.6 | 3.2 | 0.00 | 0.00 | 0.00 | 66 | 1014.6 |
| 20260504203558 | 20 | 193 | 0.0 | 4.8 | 0.00 | 0.00 | 0.00 | 67 | 1014.4 |
| 20260504203056 | 20 | 203 | 0.0 | 1.6 | 0.00 | 0.00 | 0.00 | 65 | 1014.7 |
| 20260504202550 | 19 | 212 | 1.6 | 4.8 | 0.00 | 0.00 | 0.00 | 65 | 1014.3 |
| 20260504202048 | 19 | 202 | 1.6 | 3.2 | 0.00 | 0.00 | 0.00 | 67 | 1014.5 |
| 20260504201544 | 19 | 151 | 0.0 | 1.6 | 0.00 | 0.00 | 0.00 | 67 | 1014.7 |
| 20260504201037 | 18 | 241 | 3.2 | 4.8 | 0.00 | 0.00 | 0.00 | 67 | 1014.8 |
| 20260504200533 | 19 | 202 | 1.6 | 4.8 | 0.00 | 0.00 | 0.00 | 66 | 1014.9 |
| 20260504200031 | 18 | 169 | 3.2 | 4.8 | 0.00 | 0.00 | 0.00 | 67 | 1014.9 |
| 20260504195526 | 18 | 228 | 0.0 | 4.8 | 0.00 | 0.00 | 0.00 | 68 | 1015.0 |
| 20260504195023 | 18 | 168 | 0.0 | 1.6 | 0.00 | 0.00 | 0.00 | 69 | 1015.1 |
| 20260504194520 | 18 | 241 | 3.2 | 4.8 | 0.00 | 0.00 | 0.00 | 68 | 1014.8 |
| 20260504194015 | 17 | 222 | 1.6 | 1.6 | 0.00 | 0.00 | 0.00 | 69 | 1015.0 |
| 20260504193512 | 18 | 228 | 0.0 | 1.6 | 0.00 | 0.00 | 0.00 | 70 | 1015.1 |
| 20260504193011 | 17 | 190 | 0.0 | 4.8 | 0.00 | 0.00 | 0.00 | 70 | 1015.1 |
| 20260504192509 | 17 | 186 | 0.0 | 0.0 | 0.00 | 0.00 | 0.00 | 70 | 1015.2 |
| 20260504192007 | 16 | 199 | 0.0 | 1.6 | 0.00 | 0.00 | 0.00 | 72 | 1015.1 |
| 20260504191504 | 16 | 198 | 0.0 | 3.2 | 0.00 | 0.00 | 0.00 | 74 | 1015.2 |
| 20260504191000 | 17 | 227 | 1.6 | 4.8 | 0.00 | 0.00 | 0.00 | 73 | 1015.3 |
| 20260504190456 | 16 | 173 | 0.0 | 0.0 | 0.00 | 0.00 | 0.00 | 75 | 1015.2 |
| 20260504185952 | 16 | 126 | 0.0 | 6.4 | 0.00 | 0.00 | 0.00 | 75 | 1015.2 |
| 20260504185449 | 16 | 194 | 0.0 | 3.2 | 0.00 | 0.00 | 0.00 | 76 | 1015.3 |
| 20260504184946 | 16 | 225 | 1.6 | 1.6 | 0.00 | 0.00 | 0.00 | 75 | 1015.6 |
| 20260504184441 | 16 | 201 | 0.0 | 1.6 | 0.00 | 0.00 | 0.00 | 76 | 1015.5 |